Location: Ithaca
(42.4410°N, 76.4970°W)
Time: 21:52:25
(UTC-05:00)

ISS - Visible Passes

Search period start: 22 February 2018 00:00
Search period end: 04 March 2018 00:00
Orbit: 402 x 407 km, 51.6° (Epoch: 23 February)

Date Brightness Start Highest point End Pass type
(mag) Time Alt. Az. Time Alt. Az. Time Alt. Az.
25 Feb -0.9 05:51:12 10° S 05:53:22 16° SE 05:55:31 10° E visible
27 Feb -2.4 05:41:59 10° SSW 05:45:03 37° SE 05:48:07 10° ENE visible
28 Feb -1.6 04:51:44 17° SSE 04:52:54 20° SE 04:55:25 10° E visible
01 Mar -3.9 05:34:40 20° SW 05:36:48 90° WNW 05:40:06 10° NE visible
02 Mar -3.0 04:44:45 46° SE 04:44:45 46° SE 04:47:42 10° ENE visible
03 Mar -0.4 03:54:43 12° E 03:54:43 12° E 03:55:05 10° ENE visible
03 Mar -3.3 05:27:22 28° W 05:28:40 43° NNW 05:31:50 10° NE visible
